Terug naar catalogus

NOAA 11 DEB

ActiefSSO
NORAD 37241·DEBRIS·🇺🇸 United States

Gelanceerd Sep 24, 1988 vanaf Vandenberg Space Force Base

Loading…

Volgende Passages (komende 24 uur)

TLE

VersSource: Space-Track

Epoch: Sep 14, 2026, 22:07 UTC

1 37241U 88089D   26257.92196922  .00000526  00000-0  22747-3 0  9990
2 37241  98.9695  77.0853 0020238 307.2183  52.7150 14.28651278965277

Volg NOAA 11 DEB in realtime met AllMySat

Download on the App Store